Location: Cannifist
(18.2333°N, 63.0167°W)
Time: 12:28:31
(UTC+00:00)

USA 267 - Pass Details

Date: 27 February 2020
Orbit: 1101 x 1107 km, 123.0° (Epoch: 31 March)

Event Time Altitude Azimuth Distance (km) Brightness Sun altitude
Exits shadow 23:47:02 34° 58° (ENE) 1,736 3.8 -22.0°
Maximum altitude 23:49:59 64° 126° (SE) 1,211 3.2 -22.7°
Drops below altitude 10° 23:56:26 10° 207° (SSW) 2,954 5.8 -24.3°
Sets 23:58:57 0° 210° (SSW) 3,912 6.6 -24.9°
